Location: Beddau
(51.5575°N, 3.3561°W)
Time: 14:05:10
(UTC+00:00)

Landsat 7 - Pass Details

Date: 03 March 2021
Orbit: 701 x 703 km, 98.0° (Epoch: 11 April)

Event Time Altitude Azimuth Distance (km) Brightness Sun altitude
Exits shadow 20:17:05 40° 51° (NE) 1,047 4.4 -22.2°
Drops below altitude 10° 20:21:05 10° 358° (N) 2,184 6.6 -22.8°
Sets 20:23:26 0° 351° (N) 3,106 7.5 -23.2°
